Погода в Тиуруле

Россия / Республика Карелия     61°12′54″N   29°51′42″E
темп.,
°C
ветер,
м/с
пор.,
м/с
влажн.,
%
обл.,
%
осадки,
мм/ч
давл.,
гПа
погр.,
м
16 июня, ср
ср1600:00+10зюз310700 0.0 1009213
03:00+9зюз310780 0.0 1011233
06:00+11з411725 0.0 1012511
09:00+15з610498 0.0 10131454
12:00+17з693397 0.0 10141724
15:00+18зсз692878 0.0 10151817
18:00+18з593414 0.0 10161688
21:00+14зюз225525 0.0 101631
17 июня, чт
чт1700:00+13юз235680 0.0 101846
03:00+9зсз227312 0.0 101921
06:00+11ссз12685 0.0 102079
09:00+17зсз024923 0.0 1022680
12:00+20ююз134175 0.0 10221448
15:00+21ююв244114 0.0 10221190
18:00+21ююз35455 0.0 10221013
21:00+17юз495993 0.0 1022296
18 июня, пт
пт1800:00+13юз3107060 0.0 1022204
03:00+11юз28764 0.0 1022132
06:00+13юз297423 0.0 1021236
09:00+20юз4955100 0.0 1020728
12:00+23юз6945100 0.0 10201300
15:00+24юз7104227 0.0 10181355
18:00+24юз510461 0.0 10181245
21:00+21юз513575 0.0 1017775
19 июня, сб
сб1900:00+17юз414710 0.0 1018380
03:00+15юз312780 0.0 1018282
06:00+16юз413790 0.0 1018411
09:00+22юз59530 0.0 1018733
12:00+25юз68460 0.0 10181337
15:00+26юз68481 0.0 10171518
18:00+26юз59532 0.0 10161638
21:00+22юз411680 0.0 1016539
20 июня, вс
вс2000:00+18ююз3108473 0.0 1016202
03:00+18ююз311775 0.0 1016232
06:00+19юз412780 0.0 1016399
09:00+24ююз596243 0.0 1015777
12:00+26юз6105660 0.0 10141380
15:00+27юз6105290 0.0 10141351
18:00+24юз61367100 0.0 1014917
21:00+22зюз4127756 0.0 1013527